Location: Unspecified
(40.7945°N, 111.1337°W)
Time: 16:27:32
(UTC-06:00)

Okean 3 - Visible Passes

Search period start: 25 June 2017 00:00
Search period end: 05 July 2017 00:00
Orbit: 578 x 602 km, 82.5° (Epoch: 25 June)

Date Brightness Start Highest point End Pass type
(mag) Time Alt. Az. Time Alt. Az. Time Alt. Az.
25 Jun 3.3 03:26:39 10° N 03:30:54 80° W 03:32:01 48° S visible
26 Jun 6.1 01:59:36 10° NE 02:01:30 13° ENE 02:03:21 10° E visible
26 Jun 3.7 03:35:01 10° NNW 03:39:06 51° W 03:39:53 44° SW visible
27 Jun 5.6 02:06:56 10° NNE 02:09:56 19° ENE 02:11:14 16° E visible
27 Jun 4.2 03:43:29 10° NNW 03:47:17 33° W 03:47:46 32° WSW visible
28 Jun 5.0 02:14:41 10° NNE 02:18:19 27° ENE 02:19:08 25° E visible
28 Jun 4.8 03:52:09 10° NW 03:55:24 22° W 03:55:40 22° W visible
29 Jun 4.3 02:22:39 10° N 02:26:39 40° ENE 02:27:04 39° E visible
29 Jun 5.4 04:01:09 10° NW 04:03:30 15° W 04:03:36 15° W visible
30 Jun 3.6 02:30:45 10° N 02:34:56 63° E 02:35:01 63° E visible
01 Jul 3.4 02:38:58 10° N 02:42:59 79° NW 02:42:59 79° NW visible
02 Jul 6.0 01:12:06 10° NE 01:13:47 12° ENE 01:14:27 12° E visible
02 Jul 3.9 02:47:18 10° NNW 02:50:59 50° WNW 02:50:59 50° WNW visible
03 Jul 5.6 01:19:19 10° NNE 01:22:13 18° ENE 01:22:27 18° ENE visible
03 Jul 4.5 02:55:47 10° NNW 02:58:59 32° WNW 02:58:59 32° WNW visible
04 Jul 5.1 01:27:03 10° NNE 01:30:28 26° ENE 01:30:28 26° ENE visible
04 Jul 5.1 03:04:25 10° NW 03:07:00 22° WNW 03:07:00 22° WNW visible
